Regional Weather Roundup
Issued by NWS

Home | Current Version | Previous Version | Text Only | Print | Product List | Glossary Off
Versions: 1 2 3 4 5 6 7 8 9 10 11 12 13 14 15 16 17 18 19 20 21 22 23 24 25 26 27 28 29 30 31 32 33 34 35 36 37 38 39 40 41 42 43 44 45 46 47 48 49 50

000
ASUS43 KOAX 230202
RWRNE

WEATHER ROUNDUP FOR NEBRASKA
NATIONAL WEATHER SERVICE OMAHA NE
800 PM CST WED FEB 22 2017

NOTES: SATELLITE DATA IS BEING USED TO AUGMENT CLOUD COVER ABOVE
       12000 FEET.
       "FAIR" INDICATES FEW OR NO CLOUDS BELOW 12,000 FEET WITH NO
       SIGNIFICANT WEATHER AND/OR OBSTRUCTIONS TO VISIBILITY.

  * THESE STATIONS DO NOT REPORT WEATHER SUCH AS RAIN...SNOW OR FOG.

NEZ001>004-019>022-054>056-230300-
NEBRASKA PANHANDLE

CITY           SKY/WX    TMP DP  RH WIND       PRES   REMARKS
SCOTTSBLUFF    CLOUDY    46  22  38 NE12      29.82R
ALLIANCE       CLOUDY    45  21  38 N10       29.80R
CHADRON        PTCLDY    40  30  67 NE20G26   29.85R WCI  30
KIMBALL        CLEAR     38  22  52 NW9       29.80F WCI  31
SIDNEY         MOCLDY    41  16  36 N10       29.79S
$$

NEZ057>060-069>072-079>082-230300-
SOUTHWEST NEBRASKA

CITY           SKY/WX    TMP DP  RH WIND       PRES   REMARKS
NORTH PLATTE   CLEAR     46  22  38 NE9       29.77S
IMPERIAL       CLEAR     43  21  41 NE10      29.76R
LEXINGTON      CLEAR     42  23  47 NE8       29.77R
MCCOOK         CLEAR     47  24  40 N8        29.74S
OGALLALA       CLEAR     43  22  43 N8        29.78S
$$

NEZ005>010-023>029-035>040-094-230300-
NORTH CENTRAL NEBRASKA

CITY           SKY/WX    TMP DP  RH WIND       PRES   REMARKS
VALENTINE      CLEAR     41  34  76 N12       29.85R
AINSWORTH      CLEAR     43  36  77 N10G21    29.83R
BROKEN BOW     PTCLDY    42  30  62 N9        29.78R
O`NEILL        CLEAR     47  36  63 N9        29.81R
ORD            CLEAR     45  29  53 NW6       29.77R
THEDFORD       CLOUDY    47  28  48 CALM      29.81R
$$

NEZ041-046>049-061>064-073>077-083>087-230300-
SOUTH CENTRAL NEBRASKA

CITY           SKY/WX    TMP DP  RH WIND       PRES   REMARKS
GRAND ISLAND   CLEAR     44  32  62 NE8       29.77R
AURORA         CLEAR     47  31  54 NE8       29.76R
HASTINGS       CLEAR     50  31  48 NE8       29.76R
HEBRON         CLEAR     57  30  35 NE10G16   29.73R
HOLDREGE       CLEAR     48  21  35 N8        29.75S
KEARNEY *      CLEAR     45  25  45 N8        29.77R
YORK           CLEAR     48  32  53 NE7       29.76R
$$

NEZ011>018-030>034-042>045-230300-
NORTHEAST NEBRASKA

CITY           SKY/WX    TMP DP  RH WIND       PRES   REMARKS
NORFOLK        CLEAR     48  33  56 N8        29.76S
ALBION         CLEAR     49  30  46 N8        29.77S
BLAIR          CLEAR     56  35  45 NW14G20   29.75R
FREMONT        CLEAR     52  34  50 N6        29.77R
TEKAMAH        CLEAR     46  36  68 N6        29.76R
WAYNE          CLEAR     43  35  73 N7        29.78R
$$

NEZ050>053-065>068-078-088>093-230300-
SOUTHEAST NEBRASKA

CITY           SKY/WX    TMP DP  RH WIND       PRES   REMARKS
LINCOLN        CLEAR     49  34  56 N9        29.75R
OMAHA EPPLEY   CLEAR     55  35  47 N13       29.74R
BEATRICE       CLEAR     55  35  46 N8        29.73R
FALLS CITY     CLEAR     60  40  47 N5        29.69R
NEBRASKA CITY  CLEAR     57  31  36 N14G20    29.73R
PLATTSMOUTH    CLEAR     57  28  33 N9        29.74R
$$

NEZ044-045-051>053-067-230300-
OMAHA AREA

CITY           SKY/WX    TMP DP  RH WIND       PRES   REMARKS
OMAHA EPPLEY   CLEAR     55  35  47 N13       29.74R
BLAIR          CLEAR     56  35  45 NW14G20   29.75R
FREMONT        CLEAR     52  34  50 N6        29.77R
MILLARD        CLEAR     61  35  38 N9        29.76R
OFFUTT AFB     CLEAR     59  32  36 N13       29.74R
PLATTSMOUTH    CLEAR     57  28  33 N9        29.74R
WAHOO          FAIR      51  34  52 N13       29.76R
$$



USA.gov is the U.S. government's official web portal to all federal, state and local government web resources and services.